Weather Roundup
Issued by NWS Chicago, IL

Home | Current Version | Previous Version | Graphics & Text | Print | Product List | Glossary Off
Versions: 1 2 3 4 5 6 7 8 9 10 11 12 13 14 15 16 17 18 19 20 21 22 23 24 25 26 27 28 29 30 31 32 33 34 35 36 37 38 39 40 41 42 43 44 45 46 47 48 49 50

000
NZUS59 KLOT 171709
HRRLOT

CHICAGO AREA WEATHER ROUNDUP
NATIONAL WEATHER SERVICE CHICAGO/ROMEOVILLE IL
1200 PM CDT THU AUG 17 2017

NOTE: "FAIR" INDICATES FEW OR NO CLOUDS BELOW 12,000 FEET WITH NO
SIGNIFICANT WEATHER AND/OR OBSTRUCTIONS TO VISIBILITY.

* THESE STATIONS ARE NOT UNDER NWS QUALITY CONTROL. THEY ALSO MAY NOT
  REPORT WEATHER SUCH AS PRECIPITATION OR FOG.

ILZ005-006-012>014-019>023-171800-
NORTHEAST ILLINOIS

CITY           SKY/WX    TMP DP  RH WIND       PRES   REMARKS
OHARE          PTSUNNY   77  70  79 S12G21    29.75F
MIDWAY         CLOUDY    75  70  84 SW13G23   29.75F
AURORA         CLOUDY    79  70  74 SW18G25   29.76F HX  82
LANSING*       CLOUDY    75  67  76 SW13G25   29.78R
JOLIET*        CLOUDY    78  72  82 W9        29.78S HX  80
WAUKEGAN       PTSUNNY   79  71  76 SW15      29.72F HX  82
DUPAGE AIRPORT PTSUNNY   78  71  79 SW16G24   29.75F HX  80
WHEELING       PTSUNNY   78  72  81 SW16      29.75F HX  80
MORRIS*        PTSUNNY   78  70  77 SW14G22   29.76F HX  80
LEWIS AIRPORT* CLOUDY    76  69  77 SW14G22   29.77F
NORTHERLY ISL    N/A     74  68  81 SW9         N/A
$$

WIZ051-052-058>065-066-070>072-171800-
SOUTHEAST WISCONSIN

CITY           SKY/WX    TMP DP  RH WIND       PRES   REMARKS
MILWAUKEE      PTSUNNY   78  69  73 SW15      29.70F HX  80
KENOSHA*       MOSUNNY   79  69  71 SW14G24   29.72F HX  81
RACINE*        CLOUDY    78  72  81 SW10      29.72F HX  80
WAUKESHA       PTSUNNY   75  66  73 SW10G17   29.71F
WEST BEND      PTSUNNY   77  68  73 SW15G24   29.67F
$$

INZ001>003-010>013-019-020-171800-
NORTHWEST INDIANA

CITY           SKY/WX    TMP DP  RH WIND       PRES   REMARKS
GARY*          CLOUDY    79  68  69 SW17      29.77F HX  81
MICHIGAN CITY* NOT AVBL
RENSSELAER*    NOT AVBL
VALPARAISO     CLOUDY    82  70  66 SW16G25   29.78F HX  86
$$

LMZ740>746-171800-
SOUTHERN LAKE MICHIGAN

STATION/POSITION TIME  SKY/WX   TEMP WIND        PRES    VSBY
                                AIR  DIR/SP/G
                 (UTC)          (F)  (DEG/KT/KT) (MB)    (MI)
HARRISON CRIB    1640            75  230/ 15/ 19   N/A
BURNHAM HARBOR   NOT AVBL
CALUMET HARBOR   1648            75  210/  8/ 13 1007.5F
BURNS HARBOR     1640            78  210/ 17/ 23 1008.1F
MICHIGAN CITY    1640            76  220/ 17/ 19   N/A
$$

ABBREVIATIONS USED IN REMARKS
   TC - TEMPERATURE IN CELSIUS
  WCI - WIND CHILL INDEX
   HX - HEAT INDEX
  VSB - VISIBILITY
$$




USA.gov is the U.S. government's official web portal to all federal, state and local government web resources and services.